[[{"header":{"parameterUnit":"m.s-1","parameterCategory":2,"la1":30.2991,"la2":30.254,"lo1":-89.0895,"lo2":-89.0444,"dy":0.0017,"dx":0.0017,"nx":28,"ny":28,"refTime":"2025-03-03T09:00:00:Z","depth":"0","parameterNumber":2,"parameterNumberName":"U-component_of_CURRENTS"},"data":[0,0,0,0,0,0,0,0,0,0,0,0,0,0,0,0,0,0,0,0,0,0,0,0,0,0,0,0,0,0,0,0,0,0,0,0,0,0,0,0,0,0,0,0,0,0,0,0,0,0,0,0,0,0,0,0,0,0,-0.2462,-0.2462,0,-0.2476,-0.2476,-0.2476,-0.2458,-0.2458,-0.2457,-0.2457,-0.2427,-0.2426,-0.2426,0,0,0,0,0,0,0,0,0,0,0,0,0,-0.241,-0.241,-0.2462,-0.2462,-0.2463,-0.2476,-0.2476,-0.2476,-0.2458,-0.2458,-0.2457,-0.2457,-0.2427,-0.2426,-0.2426,0,0,0,0,0,0,0,0,0,0,0,0,0,-0.2427,-0.2411,-0.2462,-0.2457,-0.2457,-0.2476,-0.2476,-0.2476,-0.2458,-0.2458,-0.2457,-0.2457,-0.2427,-0.2426,-0.2426,-0.2435,0,0,-0.2424,-0.2424,0,0,0,0,0,0,0,0,-0.2426,-0.2428,-0.2458,-0.2458,-0.2458,-0.2467,-0.2447,-0.2461,-0.2459,-0.2455,-0.2457,-0.2456,-0.2438,-0.2436,-0.2438,-0.2433,-0.2432,-0.2424,-0.2423,-0.2423,-0.2423,0,0,0,0,0,0,0,-0.2425,-0.2428,-0.2465,-0.2458,-0.2458,-0.2451,-0.2453,-0.2449,-0.2447,-0.2456,-0.2455,-0.2461,-0.2437,-0.2438,-0.2437,-0.2432,-0.2424,-0.2423,-0.2423,-0.2423,-0.2425,-0.2425,0,0,0,0,0,0,-0.2429,-0.2427,-0.2465,-0.2466,-0.2442,-0.2453,-0.2455,-0.2463,-0.2448,-0.2447,-0.2461,-0.246,-0.244,-0.2438,-0.2436,-0.2442,-0.2423,-0.2423,-0.2422,-0.2425,-0.2425,-0.2426,0,0,0,0,0,0,-0.2428,-0.2433,-0.2464,-0.2448,-0.2452,-0.2455,-0.2464,-0.2463,-0.2463,-0.2454,-0.245,-0.2462,-0.2439,-0.2436,-0.2434,-0.2441,-0.2422,-0.2422,-0.2424,-0.2425,-0.2425,-0.2457,0,0,0,0,0,0,-0.2426,-0.2432,-0.2435,-0.2449,-0.2453,-0.2479,-0.2465,-0.2464,-0.2469,-0.2467,-0.2453,-0.245,-0.2438,-0.2435,-0.2433,-0.2439,-0.2421,-0.2424,-0.2424,-0.2425,-0.2455,-0.2459,-0.2461,0,0,0,0,0,-0.2425,-0.2438,-0.2435,-0.244,-0.2459,-0.248,-0.2481,-0.2479,-0.247,-0.2475,-0.2463,-0.245,-0.2438,-0.2435,-0.2433,-0.2439,-0.2423,-0.2424,-0.2425,-0.2454,-0.2458,-0.2461,0,0,0,0,0,0,-0.2417,-0.2438,-0.2435,-0.2453,-0.2466,-0.2477,-0.2483,-0.2482,-0.2478,-0.2472,-0.2457,-0.2454,-0.2454,-0.2443,-0.244,-0.2442,-0.2428,-0.2429,-0.2451,-0.2454,-0.2457,-0.2456,-0.2421,0,0,0,0,0,-0.2418,-0.2429,-0.2448,-0.246,-0.2469,-0.2475,-0.2481,-0.2482,-0.2484,-0.2482,-0.2472,-0.2462,-0.2458,-0.2453,-0.2448,-0.245,-0.244,-0.2453,-0.2456,-0.2458,-0.2456,-0.2442,-0.2443,-0.2429,-0.2429,-0.2429,0,0,-0.2417,-0.243,-0.2435,-0.2458,-0.2465,-0.2485,-0.2476,-0.2491,-0.2501,-0.2479,-0.2483,-0.2473,-0.2462,-0.2464,-0.2463,-0.2455,-0.2461,-0.246,-0.2462,-0.2458,-0.2443,-0.2444,-0.2445,-0.2429,-0.2429,-0.2429,0,0,-0.2426,-0.2434,-0.2448,-0.2464,-0.2482,-0.249,-0.2497,-0.251,-0.2509,-0.2518,-0.2502,-0.2495,-0.2493,-0.2482,-0.2477,-0.2494,-0.2479,-0.2495,-0.2506,-0.2493,-0.2494,-0.2495,-0.2501,-0.2502,-0.2494,-0.2494,-0.2494,0,-0.2423,-0.2443,-0.2454,-0.2477,-0.2488,-0.2495,-0.2514,-0.2522,-0.253,-0.2531,-0.2523,-0.2514,-0.2501,-0.25,-0.2503,-0.25,-0.2496,-0.2494,-0.2497,-0.2497,-0.2497,-0.2503,-0.2504,-0.2496,-0.2496,-0.2496,-0.2495,0,-0.2444,-0.2461,-0.2473,-0.2499,-0.2516,-0.2533,-0.2551,-0.2561,-0.256,-0.2563,-0.2563,-0.2545,-0.2537,-0.2534,-0.2523,-0.2519,-0.252,-0.2504,-0.2487,-0.2501,-0.2506,-0.2506,-0.2498,-0.2498,-0.2497,-0.2497,0,0,-0.2428,-0.2477,-0.2478,-0.2494,-0.2527,-0.2543,-0.2567,-0.2586,-0.2601,-0.2597,-0.2608,-0.2589,-0.2575,-0.2568,-0.2551,-0.2536,-0.2537,-0.2521,-0.252,-0.2527,-0.2524,-0.2515,-0.2514,-0.2521,-0.2521,-0.2521,-0.2534,0,-0.2434,-0.2472,-0.2497,-0.2529,-0.2548,-0.2571,-0.2597,-0.2616,-0.2626,-0.2642,-0.262,-0.2624,-0.2591,-0.2588,-0.2568,-0.255,-0.2535,-0.2536,-0.251,-0.2509,-0.2499,-0.2512,-0.2448,-0.2453,-0.2534,-0.2534,-0.2534,0,-0.2434,-0.2462,-0.2493,-0.2543,-0.2555,-0.2576,-0.2612,-0.2637,-0.2665,-0.2675,-0.2671,-0.2664,-0.2648,-0.2615,-0.258,-0.2584,-0.2553,-0.2532,-0.2532,-0.2509,-0.2499,-0.2449,-0.245,-0.2441,-0.2534,-0.2534,-0.2534,0,-0.2395,-0.2452,-0.2472,-0.2489,-0.2552,-0.2567,-0.2596,-0.2635,-0.266,-0.2689,-0.2711,-0.2695,-0.2689,-0.2649,-0.2611,-0.2595,-0.2579,-0.2552,-0.2514,-0.2514,-0.2446,-0.244,-0.243,-0.2515,-0.2515,-0.2515,-0.2515,0,-0.2378,-0.2393,-0.2455,-0.2466,-0.2495,-0.2548,-0.2581,-0.2613,-0.2667,-0.2698,-0.2714,-0.2732,-0.2693,-0.2684,-0.2636,-0.2588,-0.2597,-0.2519,-0.2512,-0.2458,-0.2453,-0.243,-0.2427,-0.2515,-0.2515,-0.2515,-0.2515,0,-0.2317,-0.2363,-0.2388,-0.2454,-0.2473,-0.2487,-0.2564,-0.2592,-0.2656,-0.2698,-0.2709,-0.2757,-0.2747,-0.2719,-0.2671,-0.2621,-0.254,-0.2553,-0.2506,-0.2492,-0.2433,-0.2434,-0.2385,-0.2323,-0.2508,-0.2507,-0.2507,0,-0.2285,-0.2291,-0.2355,-0.2368,-0.2391,-0.2434,-0.2464,-0.2555,-0.2593,-0.2706,-0.2718,-0.2753,-0.2753,-0.2715,-0.2651,-0.2588,-0.2532,-0.2481,-0.2424,-0.2427,-0.2423,-0.2402,-0.2352,-0.2355,-0.2354,-0.2353,-0.2352,0,-0.221,-0.2231,-0.2251,-0.228,-0.2308,-0.2349,-0.2403,-0.2442,-0.2555,-0.2606,-0.2672,-0.2693,-0.2708,-0.2638,-0.2586,-0.252,-0.2432,-0.2455,-0.2456,-0.2303,-0.2279,-0.2218,-0.2374,-0.2342,-0.2343,-0.2343,-0.2344,-0.2344,-0.2134,-0.2126,-0.2151,-0.2165,-0.2202,-0.2226,-0.2221,-0.2311,-0.2359,-0.2424,-0.2546,-0.2573,-0.2592,-0.2516,-0.2472,-0.2383,-0.2364,-0.2291,-0.2295,-0.2277,-0.2201,-0.2352,-0.2313,-0.2314,-0.2314,-0.2315,-0.2316,0,-0.2022,-0.2023,-0.2034,-0.2046,-0.2033,-0.2093,-0.2143,-0.2126,-0.2141,-0.2269,-0.2316,-0.2415,-0.2371,-0.239,-0.2344,-0.2254,-0.2171,-0.2183,-0.2131,-0.2085,-0.2215,-0.2192,-0.2127,-0.2127,-0.2127,-0.2127,-0.2127,-0.2127,-0.1963,-0.1921,-0.1924,-0.1855,-0.1865,-0.1802,-0.1797,-0.1805,-0.1863,-0.1936,-0.2052,-0.2196,-0.2241,-0.2399,-0.2312,-0.2203,-0.2108,-0.2047,-0.2041,-0.2144,-0.2154,-0.2164,-0.2142,-0.2068,-0.2068,-0.1851,-0.185,-0.1849]},{"header":{"parameterUnit":"m.s-1","parameterCategory":2,"la1":30.2991,"la2":30.254,"lo1":-89.0895,"lo2":-89.0444,"dy":0.0017,"dx":0.0017,"nx":28,"ny":28,"refTime":"2025-03-03T09:00:00:Z","depth":"0","parameterNumber":3,"parameterNumberName":"V-component_of_CURRENTS"},"data":[0,0,0,0,0,0,0,0,0,0,0,0,0,0,0,0,0,0,0,0,0,0,0,0,0,0,0,0,0,0,0,0,0,0,0,0,0,0,0,0,0,0,0,0,0,0,0,0,0,0,0,0,0,0,0,0,0,0,-0.0338,-0.0338,0,-0.0262,-0.0261,-0.026,-0.0207,-0.0206,-0.0206,-0.0206,-0.0105,-0.0103,-0.0101,0,0,0,0,0,0,0,0,0,0,0,0,0,-0.0368,-0.0368,-0.0338,-0.0338,-0.0337,-0.0262,-0.026,-0.0259,-0.0207,-0.0206,-0.0206,-0.0206,-0.0106,-0.0103,-0.01,0,0,0,0,0,0,0,0,0,0,0,0,0,-0.0329,-0.0368,-0.0339,-0.0302,-0.0298,-0.0262,-0.026,-0.0259,-0.0207,-0.0206,-0.0206,-0.0205,-0.0107,-0.0104,-0.01,-0.0086,0,0,-0.0089,-0.0087,0,0,0,0,0,0,0,0,-0.0331,-0.0327,-0.0308,-0.0305,-0.03,-0.0244,-0.0234,-0.0201,-0.0207,-0.024,-0.0206,-0.0205,-0.0151,-0.0143,-0.0129,-0.0082,-0.0077,-0.0089,-0.0086,-0.0085,-0.0084,0,0,0,0,0,0,0,-0.0334,-0.033,-0.0307,-0.0308,-0.0303,-0.0265,-0.026,-0.0227,-0.0198,-0.0237,-0.0234,-0.0227,-0.0148,-0.0132,-0.0126,-0.0076,-0.0089,-0.0086,-0.0083,-0.0082,-0.0005,-0.0005,0,0,0,0,0,0,-0.035,-0.0333,-0.0309,-0.0305,-0.0316,-0.0265,-0.0259,-0.0262,-0.0198,-0.0189,-0.0227,-0.0225,-0.0139,-0.013,-0.0122,-0.0092,-0.0085,-0.0082,-0.0079,-0.0004,-0.0005,-0.0005,0,0,0,0,0,0,-0.0351,-0.0349,-0.0312,-0.0317,-0.031,-0.0266,-0.0269,-0.026,-0.0244,-0.0191,-0.0181,-0.022,-0.0138,-0.0127,-0.0092,-0.0088,-0.008,-0.0077,-0.0004,-0.0004,-0.0005,-0.0038,0,0,0,0,0,0,-0.0352,-0.035,-0.0356,-0.0319,-0.0311,-0.0294,-0.0269,-0.0259,-0.0241,-0.0237,-0.0181,-0.0171,-0.0137,-0.0098,-0.0089,-0.0083,-0.0074,-0.0004,-0.0004,-0.0005,-0.0036,-0.0039,-0.0041,0,0,0,0,0,-0.0354,-0.0366,-0.0357,-0.0354,-0.0321,-0.0295,-0.0287,-0.0253,-0.0241,-0.0236,-0.0198,-0.0173,-0.0093,-0.0095,-0.0084,-0.0077,-0.0004,-0.0004,-0.0005,-0.0035,-0.0038,-0.0041,0,0,0,0,0,0,-0.0379,-0.036,-0.035,-0.0355,-0.0329,-0.0286,-0.028,-0.0258,-0.0224,-0.0221,-0.0171,-0.0159,-0.0127,-0.0101,-0.0105,-0.0057,-0.0046,-0.0044,-0.0073,-0.0075,-0.0078,-0.0086,-0.0071,0,0,0,0,0,-0.039,-0.0395,-0.0365,-0.0369,-0.036,-0.0322,-0.0307,-0.0285,-0.0251,-0.0235,-0.0196,-0.0156,-0.012,-0.0098,-0.0065,-0.0037,-0.0007,-0.0027,-0.0029,-0.0031,-0.0032,0.0011,0.0012,-0.0005,-0.0005,-0.0005,0,0,-0.04,-0.0391,-0.0393,-0.0374,-0.0353,-0.0343,-0.0312,-0.0295,-0.0281,-0.023,-0.0201,-0.0164,-0.0116,-0.0084,-0.0067,-0.006,-0.001,-0.0032,-0.0034,-0.0033,0.0011,0.0013,0.0014,-0.0006,-0.0006,-0.0006,0,0,-0.0426,-0.0416,-0.043,-0.0412,-0.0388,-0.0362,-0.0361,-0.0322,-0.0298,-0.0267,-0.0227,-0.0188,-0.0136,-0.0095,-0.0069,-0.0066,-0.0027,-0.0059,-0.0071,-0.003,-0.0028,-0.0026,0.0016,0.0022,-0.0057,-0.0057,-0.0057,0,-0.0439,-0.0453,-0.0427,-0.0432,-0.0421,-0.0376,-0.0381,-0.0347,-0.0299,-0.0279,-0.0265,-0.018,-0.0139,-0.009,-0.0087,-0.0069,-0.0042,-0.0064,-0.0033,-0.003,-0.0027,0.0015,0.0022,-0.0059,-0.0058,-0.0058,-0.0058,0,-0.0473,-0.048,-0.0485,-0.0478,-0.046,-0.0457,-0.0412,-0.0389,-0.0357,-0.0319,-0.0268,-0.0207,-0.0156,-0.0136,-0.0107,-0.0067,-0.0053,-0.0043,-0.0026,-0.0027,0.0017,0.0025,-0.0061,-0.006,-0.006,-0.0059,0,0,-0.0515,-0.0513,-0.0514,-0.0522,-0.0486,-0.048,-0.0451,-0.0413,-0.0397,-0.0337,-0.0306,-0.0233,-0.0197,-0.0166,-0.012,-0.0077,-0.003,-0.0055,-0.0052,-0.0015,0.0062,0.0123,0.0138,-0.0017,-0.0016,-0.0015,0.0086,0,-0.0551,-0.0584,-0.056,-0.0576,-0.0588,-0.0535,-0.0515,-0.047,-0.042,-0.0375,-0.0297,-0.0253,-0.0208,-0.0185,-0.0133,-0.0056,-0.0012,-0.0059,0.0058,0.0062,0.0116,0.0149,0.0199,0.0298,0.0094,0.0095,0.0096,0,-0.0593,-0.0611,-0.0642,-0.0638,-0.0636,-0.063,-0.0591,-0.0565,-0.0483,-0.0442,-0.0372,-0.0309,-0.0223,-0.0197,-0.0057,-0.009,-0.0021,0.0039,0.0044,0.0119,0.0139,0.0267,0.0321,0.0478,0.0109,0.0108,0.0107,0,-0.0652,-0.0665,-0.0696,-0.0694,-0.0679,-0.0675,-0.0656,-0.059,-0.0569,-0.0483,-0.0454,-0.0342,-0.0287,-0.0181,-0.0039,-0.0053,0.0113,0.0108,0.023,0.0235,0.0311,0.0321,0.0532,0.0195,0.0195,0.0194,0.0194,0,-0.0705,-0.0727,-0.073,-0.0749,-0.0779,-0.0738,-0.0743,-0.0701,-0.064,-0.0613,-0.0497,-0.0441,-0.0283,-0.0161,-0.0045,0.0136,0.0114,0.0241,0.0272,0.0302,0.0309,0.0475,0.052,0.0198,0.0197,0.0197,0.0196,0,-0.0764,-0.0764,-0.0805,-0.0809,-0.0812,-0.0833,-0.0817,-0.0816,-0.074,-0.0699,-0.0675,-0.0515,-0.0338,-0.0164,0.0023,0.0131,0.0389,0.035,0.0381,0.0413,0.0665,0.0704,0.0917,0.0983,0.0499,0.0502,0.0503,0,-0.0799,-0.0827,-0.0863,-0.0896,-0.0901,-0.0922,-0.0936,-0.0879,-0.0866,-0.0736,-0.0718,-0.0535,-0.0382,-0.0058,0.0174,0.0412,0.0499,0.0573,0.0558,0.0709,0.0774,0.0794,0.0833,0.0646,0.0649,0.0651,0.0653,0,-0.0863,-0.0874,-0.0911,-0.0982,-0.1015,-0.1046,-0.105,-0.1055,-0.0971,-0.09,-0.0763,-0.0625,-0.0276,0.0046,0.0366,0.0504,0.0694,0.0628,0.0783,0.0915,0.0952,0.1018,0.0545,0.0674,0.0672,0.067,0.0669,0.0668,-0.0905,-0.0951,-0.1002,-0.1065,-0.111,-0.1148,-0.1164,-0.1139,-0.1096,-0.096,-0.0814,-0.0563,-0.0083,0.0402,0.0569,0.0952,0.0881,0.1051,0.1088,0.1095,0.1165,0.0742,0.0903,0.0902,0.0902,0.0901,0.0901,0,-0.0955,-0.1007,-0.1079,-0.115,-0.1211,-0.1208,-0.1224,-0.1205,-0.1142,-0.0975,-0.08,-0.0257,0.0226,0.0654,0.1207,0.1404,0.1414,0.1495,0.1541,0.1557,0.1199,0.1214,0.1453,0.1452,0.1452,0.1452,0.1452,0.1452,-0.0982,-0.1064,-0.1104,-0.1216,-0.1263,-0.1304,-0.1307,-0.1245,-0.1127,-0.083,-0.0522,-0.0276,0.0375,0.1298,0.1808,0.184,0.1967,0.1965,0.2015,0.1785,0.1746,0.1709,0.1738,0.2082,0.2083,0.2364,0.2367,0.237]}],[{"header":{"parameterUnit":"m.s-1","parameterCategory":2,"la1":30.2991,"la2":30.254,"lo1":-89.0895,"lo2":-89.0444,"dy":0.0017,"dx":0.0017,"nx":28,"ny":28,"refTime":"2025-03-03T09:00:00:Z","depth":"2","parameterNumber":2,"parameterNumberName":"U-component_of_CURRENTS"},"data":[0,0,0,0,0,0,0,0,0,0,0,0,0,0,0,0,0,0,0,0,0,0,0,0,0,0,0,0,0,0,0,0,0,0,0,0,0,0,0,0,0,0,0,0,0,0,0,0,0,0,0,0,0,0,0,0,0,0,-0.226,-0.226,0,-0.2272,-0.2272,-0.2271,-0.2258,-0.2258,-0.2257,-0.2257,-0.2238,-0.2237,-0.2237,0,0,0,0,0,0,0,0,0,0,0,0,0,-0.2214,-0.2215,-0.226,-0.226,-0.226,-0.2272,-0.2272,-0.2271,-0.2258,-0.2258,-0.2257,-0.2257,-0.2238,-0.2237,-0.2237,0,0,0,0,0,0,0,0,0,0,0,0,0,-0.2229,-0.2215,-0.226,-0.2257,-0.2257,-0.2272,-0.2272,-0.2271,-0.2258,-0.2258,-0.2257,-0.2257,-0.2238,-0.2237,-0.2237,-0.2244,0,0,-0.2236,-0.2236,0,0,0,0,0,0,0,0,-0.2228,-0.223,-0.2257,-0.2257,-0.2257,-0.2265,-0.2248,-0.2261,-0.2258,-0.2255,-0.2257,-0.2257,-0.2246,-0.2245,-0.2245,-0.2243,-0.2242,-0.2236,-0.2236,-0.2236,-0.2235,0,0,0,0,0,0,0,-0.2227,-0.2229,-0.2262,-0.2257,-0.2257,-0.2251,-0.2253,-0.2251,-0.225,-0.2255,-0.2255,-0.226,-0.2245,-0.2245,-0.2244,-0.2242,-0.2236,-0.2236,-0.2235,-0.2235,-0.2245,-0.2246,0,0,0,0,0,0,-0.2231,-0.2229,-0.2262,-0.2263,-0.2243,-0.2253,-0.2254,-0.2261,-0.2251,-0.225,-0.2261,-0.226,-0.2246,-0.2245,-0.2244,-0.2257,-0.2236,-0.2235,-0.2235,-0.2245,-0.2245,-0.2246,0,0,0,0,0,0,-0.223,-0.2234,-0.2261,-0.2247,-0.2251,-0.2254,-0.2262,-0.2261,-0.2265,-0.2256,-0.2254,-0.2265,-0.2246,-0.2244,-0.2246,-0.2256,-0.2235,-0.2235,-0.2244,-0.2245,-0.2246,-0.2279,0,0,0,0,0,0,-0.2229,-0.2234,-0.2238,-0.2248,-0.2252,-0.2276,-0.2263,-0.2262,-0.227,-0.2269,-0.2259,-0.2257,-0.2245,-0.2246,-0.2245,-0.2255,-0.2234,-0.2244,-0.2245,-0.2245,-0.2278,-0.2281,-0.2284,0,0,0,0,0,-0.2227,-0.224,-0.2238,-0.2242,-0.2259,-0.2277,-0.2278,-0.2277,-0.2271,-0.2277,-0.2269,-0.2257,-0.2251,-0.2247,-0.2245,-0.2255,-0.2243,-0.2244,-0.2245,-0.2276,-0.2281,-0.2284,0,0,0,0,0,0,-0.2224,-0.2241,-0.2239,-0.2256,-0.2267,-0.2275,-0.2282,-0.2282,-0.2281,-0.2278,-0.2264,-0.2262,-0.2267,-0.2257,-0.2252,-0.226,-0.2245,-0.2246,-0.2269,-0.2273,-0.2276,-0.2274,-0.2234,0,0,0,0,0,-0.2226,-0.2236,-0.2252,-0.2264,-0.2272,-0.2277,-0.2284,-0.2285,-0.2288,-0.2287,-0.2281,-0.2273,-0.2271,-0.2269,-0.2265,-0.2271,-0.226,-0.2275,-0.2279,-0.2282,-0.2279,-0.2265,-0.2267,-0.225,-0.225,-0.225,0,0,-0.2227,-0.2237,-0.2242,-0.2263,-0.227,-0.2289,-0.228,-0.2295,-0.2305,-0.2285,-0.2294,-0.2286,-0.2275,-0.2281,-0.2282,-0.2274,-0.2285,-0.2283,-0.2285,-0.2281,-0.2266,-0.2268,-0.2269,-0.225,-0.225,-0.225,0,0,-0.2237,-0.2245,-0.2259,-0.2273,-0.2291,-0.2298,-0.2305,-0.2318,-0.2318,-0.233,-0.2315,-0.2311,-0.2313,-0.2302,-0.2298,-0.2317,-0.2303,-0.2321,-0.2334,-0.2321,-0.2323,-0.2323,-0.2329,-0.233,-0.2321,-0.2321,-0.2321,0,-0.2238,-0.2255,-0.2266,-0.2287,-0.2298,-0.2305,-0.2324,-0.2331,-0.2341,-0.2342,-0.2337,-0.2333,-0.2322,-0.2322,-0.2327,-0.2324,-0.2321,-0.2321,-0.2325,-0.2326,-0.2326,-0.2331,-0.2331,-0.2323,-0.2323,-0.2322,-0.2322,0,-0.2258,-0.2275,-0.2287,-0.2312,-0.2328,-0.2345,-0.2362,-0.2373,-0.2375,-0.2378,-0.2382,-0.2366,-0.2361,-0.2359,-0.2349,-0.2348,-0.2348,-0.2332,-0.2315,-0.233,-0.2334,-0.2334,-0.2325,-0.2325,-0.2324,-0.2324,0,0,-0.2246,-0.2292,-0.2294,-0.2309,-0.2341,-0.2356,-0.238,-0.2399,-0.2415,-0.2414,-0.2427,-0.2412,-0.2401,-0.2394,-0.2379,-0.2365,-0.2368,-0.2352,-0.235,-0.2357,-0.2356,-0.2344,-0.2343,-0.2353,-0.2353,-0.2353,-0.2365,0,-0.2254,-0.2291,-0.2314,-0.2346,-0.2365,-0.2387,-0.2412,-0.2431,-0.2442,-0.2459,-0.2439,-0.2445,-0.2416,-0.2416,-0.2397,-0.238,-0.2367,-0.2367,-0.234,-0.234,-0.2326,-0.2341,-0.2152,-0.2145,-0.2365,-0.2365,-0.2365,0,-0.2255,-0.2282,-0.2314,-0.2362,-0.2374,-0.2396,-0.2432,-0.2456,-0.2483,-0.2495,-0.2493,-0.2486,-0.2473,-0.2444,-0.241,-0.2415,-0.2385,-0.2365,-0.2365,-0.2338,-0.2327,-0.2162,-0.2136,-0.2364,-0.2364,-0.2364,-0.2364,0,-0.2222,-0.2277,-0.2298,-0.2315,-0.2374,-0.2391,-0.242,-0.2458,-0.2482,-0.2512,-0.2533,-0.2519,-0.2516,-0.2477,-0.2441,-0.2426,-0.241,-0.2383,-0.2344,-0.2344,-0.2168,-0.2152,-0.2348,-0.2348,-0.2348,-0.2348,-0.2348,0,-0.2208,-0.2225,-0.2285,-0.2297,-0.2328,-0.2377,-0.2412,-0.2443,-0.2495,-0.2523,-0.254,-0.2556,-0.2521,-0.2511,-0.2466,-0.2417,-0.2428,-0.2349,-0.2342,-0.2178,-0.2164,-0.2336,-0.2335,-0.2348,-0.2348,-0.2348,-0.2348,0,-0.2155,-0.2198,-0.2225,-0.229,-0.2309,-0.2326,-0.24,-0.2426,-0.2489,-0.2528,-0.254,-0.2583,-0.2572,-0.2545,-0.2498,-0.2449,-0.2405,-0.238,-0.2208,-0.2179,-0.2341,-0.2341,-0.2334,-0.2333,-0.2333,-0.2333,-0.2332,0,-0.2126,-0.2134,-0.2198,-0.2212,-0.2237,-0.228,-0.231,-0.2396,-0.243,-0.2535,-0.2545,-0.2578,-0.257,-0.253,-0.2452,-0.2384,-0.2405,-0.2174,-0.2101,-0.2344,-0.2338,-0.2338,-0.2339,-0.1885,-0.1881,-0.1878,-0.1875,0,-0.2058,-0.2081,-0.2103,-0.2134,-0.2164,-0.2201,-0.2254,-0.2288,-0.2393,-0.2437,-0.2492,-0.2506,-0.2501,-0.2355,-0.2297,-0.2219,-0.2173,-0.211,-0.2384,-0.1935,-0.1926,-0.1919,-0.1933,-0.1847,-0.185,-0.1852,-0.1854,-0.1855,-0.199,-0.1985,-0.2012,-0.2028,-0.2065,-0.2085,-0.2078,-0.2154,-0.2192,-0.2221,-0.2343,-0.2296,-0.2282,-0.2098,-0.2006,-0.1921,-0.2052,-0.1918,-0.1925,-0.1936,-0.1898,-0.1891,-0.1799,-0.1802,-0.1804,-0.1806,-0.1807,0,-0.1885,-0.189,-0.1903,-0.1916,-0.1901,-0.1962,-0.2003,-0.1963,-0.1958,-0.2022,-0.204,-0.1848,-0.1785,-0.1773,-0.1619,-0.1601,-0.1544,-0.151,-0.1421,-0.1451,-0.1477,-0.1413,-0.1187,-0.1185,-0.1183,-0.1182,0,0,-0.1829,-0.1792,-0.1795,-0.1728,-0.174,-0.1669,-0.166,-0.1623,-0.1624,-0.1556,-0.1535,-0.1676,-0.1728,-0.1455,-0.1396,-0.1272,-0.1337,-0.1203,-0.1699,-0.1624,-0.1647,-0.1714,-0.1651,0,0,0,0,0]},{"header":{"parameterUnit":"m.s-1","parameterCategory":2,"la1":30.2991,"la2":30.254,"lo1":-89.0895,"lo2":-89.0444,"dy":0.0017,"dx":0.0017,"nx":28,"ny":28,"refTime":"2025-03-03T09:00:00:Z","depth":"2","parameterNumber":3,"parameterNumberName":"V-component_of_CURRENTS"},"data":[0,0,0,0,0,0,0,0,0,0,0,0,0,0,0,0,0,0,0,0,0,0,0,0,0,0,0,0,0,0,0,0,0,0,0,0,0,0,0,0,0,0,0,0,0,0,0,0,0,0,0,0,0,0,0,0,0,0,-0.035,-0.0349,0,-0.0275,-0.0274,-0.0273,-0.0221,-0.0221,-0.022,-0.022,-0.0121,-0.0119,-0.0116,0,0,0,0,0,0,0,0,0,0,0,0,0,-0.0378,-0.0378,-0.035,-0.0349,-0.0348,-0.0275,-0.0274,-0.0273,-0.0221,-0.0221,-0.022,-0.022,-0.0122,-0.0119,-0.0116,0,0,0,0,0,0,0,0,0,0,0,0,0,-0.034,-0.0378,-0.035,-0.0314,-0.0311,-0.0275,-0.0274,-0.0272,-0.0221,-0.0221,-0.022,-0.022,-0.0123,-0.0119,-0.0116,-0.0102,0,0,-0.0105,-0.0103,0,0,0,0,0,0,0,0,-0.0342,-0.0339,-0.032,-0.0317,-0.0312,-0.0258,-0.0247,-0.0215,-0.0221,-0.0254,-0.022,-0.022,-0.0166,-0.0159,-0.0144,-0.0098,-0.0093,-0.0105,-0.0102,-0.0101,-0.01,0,0,0,0,0,0,0,-0.0345,-0.0341,-0.0319,-0.032,-0.0315,-0.0278,-0.0273,-0.0241,-0.0212,-0.0251,-0.0247,-0.0241,-0.0163,-0.0148,-0.0141,-0.0092,-0.0105,-0.0102,-0.0099,-0.0098,-0.0022,-0.0022,0,0,0,0,0,0,-0.0361,-0.0345,-0.0321,-0.0317,-0.0328,-0.0278,-0.0272,-0.0275,-0.0213,-0.0203,-0.0241,-0.0239,-0.0154,-0.0146,-0.0138,-0.0108,-0.0101,-0.0098,-0.0096,-0.0022,-0.0022,-0.0022,0,0,0,0,0,0,-0.0362,-0.036,-0.0324,-0.0329,-0.0322,-0.0279,-0.0282,-0.0274,-0.0257,-0.0206,-0.0195,-0.0234,-0.0153,-0.0143,-0.0108,-0.0104,-0.0096,-0.0093,-0.0022,-0.0022,-0.0022,-0.0055,0,0,0,0,0,0,-0.0363,-0.0361,-0.0367,-0.0331,-0.0322,-0.0307,-0.0282,-0.0272,-0.0255,-0.0251,-0.0196,-0.0186,-0.0152,-0.0114,-0.0105,-0.0099,-0.009,-0.0022,-0.0022,-0.0022,-0.0054,-0.0057,-0.0059,0,0,0,0,0,-0.0365,-0.0376,-0.0368,-0.0365,-0.0333,-0.0307,-0.03,-0.0266,-0.0255,-0.025,-0.0212,-0.0188,-0.0109,-0.0111,-0.01,-0.0094,-0.0022,-0.0022,-0.0022,-0.0053,-0.0056,-0.0059,0,0,0,0,0,0,-0.0389,-0.0371,-0.0361,-0.0366,-0.0341,-0.0299,-0.0292,-0.0271,-0.0237,-0.0234,-0.0186,-0.0173,-0.0143,-0.0117,-0.0121,-0.0074,-0.0063,-0.0061,-0.009,-0.0092,-0.0095,-0.0102,-0.0087,0,0,0,0,0,-0.04,-0.0405,-0.0376,-0.0379,-0.0371,-0.0333,-0.0319,-0.0298,-0.0264,-0.0249,-0.021,-0.0172,-0.0136,-0.0114,-0.0082,-0.0054,-0.0024,-0.0045,-0.0047,-0.0049,-0.0049,-0.0005,-0.0003,-0.0023,-0.0023,-0.0023,0,0,-0.0409,-0.04,-0.0402,-0.0385,-0.0364,-0.0354,-0.0323,-0.0308,-0.0293,-0.0244,-0.0214,-0.0179,-0.0133,-0.0101,-0.0085,-0.0077,-0.0027,-0.005,-0.0052,-0.005,-0.0005,-0.0002,-0.0001,-0.0024,-0.0024,-0.0023,0,0,-0.0433,-0.0425,-0.0438,-0.0421,-0.0397,-0.0372,-0.0371,-0.0333,-0.031,-0.028,-0.0241,-0.0203,-0.0153,-0.0112,-0.0087,-0.0084,-0.0044,-0.0078,-0.0088,-0.0046,-0.0044,-0.0042,0.0001,0.0007,-0.0076,-0.0076,-0.0076,0,-0.0446,-0.0459,-0.0435,-0.0439,-0.0428,-0.0385,-0.0389,-0.0357,-0.031,-0.029,-0.0278,-0.0194,-0.0156,-0.0106,-0.0104,-0.0088,-0.0059,-0.0081,-0.0049,-0.0046,-0.0043,0.0,0.0008,-0.0077,-0.0077,-0.0077,-0.0077,0,-0.0478,-0.0484,-0.0488,-0.0481,-0.0464,-0.046,-0.0418,-0.0395,-0.0364,-0.0327,-0.0277,-0.022,-0.0169,-0.0151,-0.0124,-0.0083,-0.0069,-0.006,-0.0042,-0.0043,0.0003,0.0011,-0.008,-0.0079,-0.0079,-0.0078,0,0,-0.0517,-0.0514,-0.0515,-0.0521,-0.0488,-0.048,-0.0453,-0.0415,-0.0397,-0.0341,-0.0308,-0.024,-0.0205,-0.0175,-0.0132,-0.009,-0.0043,-0.0069,-0.0066,-0.0028,0.0053,0.0105,0.012,-0.0029,-0.0028,-0.0027,0.0076,0,-0.055,-0.0579,-0.0557,-0.0569,-0.058,-0.0529,-0.0509,-0.0465,-0.0416,-0.0372,-0.0297,-0.0254,-0.0214,-0.0192,-0.0141,-0.0067,-0.0022,-0.0071,0.0048,0.0052,0.0099,0.013,0.0096,0.019,0.0085,0.0086,0.0087,0,-0.0589,-0.0604,-0.0632,-0.0624,-0.0622,-0.0615,-0.0575,-0.0549,-0.0468,-0.0429,-0.036,-0.0301,-0.0218,-0.0197,-0.0059,-0.0093,-0.0026,0.0031,0.0036,0.0103,0.012,0.0174,0.0209,0.0102,0.0101,0.01,0.0099,0,-0.0643,-0.0653,-0.068,-0.0678,-0.066,-0.0655,-0.0637,-0.0571,-0.055,-0.0464,-0.0435,-0.0327,-0.0274,-0.0171,-0.0038,-0.0052,0.0111,0.0106,0.0219,0.0223,0.0228,0.0231,0.0193,0.0193,0.0193,0.0193,0.0192,0,-0.0692,-0.0711,-0.0712,-0.0729,-0.0755,-0.0714,-0.0716,-0.0675,-0.0613,-0.0586,-0.0474,-0.042,-0.0268,-0.015,-0.004,0.0132,0.0116,0.0231,0.026,0.0216,0.0217,0.0163,0.0158,0.0197,0.0196,0.0195,0.0194,0,-0.0748,-0.0747,-0.0783,-0.0784,-0.0786,-0.0805,-0.0787,-0.0783,-0.0709,-0.0668,-0.0645,-0.0489,-0.032,-0.0152,0.0029,0.0132,0.0283,0.0341,0.0286,0.0307,0.0363,0.0355,0.0476,0.0479,0.0481,0.0483,0.0485,0,-0.0781,-0.0807,-0.0839,-0.0869,-0.0874,-0.0891,-0.0904,-0.0845,-0.0831,-0.0704,-0.0686,-0.051,-0.0367,-0.0055,0.0156,0.0381,0.036,0.0465,0.0436,0.0379,0.0395,0.0383,0.0372,0.0426,0.0427,0.0428,0.0429,0,-0.0842,-0.0853,-0.0886,-0.0953,-0.0984,-0.101,-0.1013,-0.1016,-0.0933,-0.0864,-0.0735,-0.0605,-0.0282,-0.0019,0.0283,0.0402,0.0431,0.0492,0.0457,0.0363,0.0342,0.0354,0.0343,0.0437,0.0436,0.0435,0.0435,0.0435,-0.0883,-0.0927,-0.0974,-0.1033,-0.1075,-0.1111,-0.1126,-0.11,-0.1057,-0.0929,-0.0796,-0.0574,-0.0303,0.0134,0.0352,0.0545,0.0539,0.0564,0.0557,0.055,0.0529,0.0514,0.0637,0.0637,0.0638,0.0638,0.0638,0,-0.0931,-0.0981,-0.105,-0.1116,-0.1174,-0.1171,-0.1184,-0.1162,-0.1104,-0.0958,-0.08,-0.0495,-0.0175,0.0103,0.0426,0.0622,0.0586,0.0637,0.0545,0.0537,0.053,0.0503,0.0607,0.0608,0.0608,0.0608,0,0,-0.0957,-0.1035,-0.1073,-0.118,-0.1227,-0.1266,-0.1269,-0.1203,-0.1097,-0.0938,-0.077,-0.0533,-0.018,0.0033,0.0289,0.0456,0.0436,0.0464,0.047,0.0323,0.0313,0.0474,0.0424,0,0,0,0,0]}],[{"header":{"parameterUnit":"m.s-1","parameterCategory":2,"la1":30.2991,"la2":30.254,"lo1":-89.0895,"lo2":-89.0444,"dy":0.0017,"dx":0.0017,"nx":28,"ny":28,"refTime":"2025-03-03T09:00:00:Z","depth":"4","parameterNumber":2,"parameterNumberName":"U-component_of_CURRENTS"},"data":[0,0,0,0,0,0,0,0,0,0,0,0,0,0,0,0,0,0,0,0,0,0,0,0,0,0,0,0,0,0,0,0,0,0,0,0,0,0,0,0,0,0,0,0,0,0,0,0,0,0,0,0,0,0,0,0,0,0,-0.1512,-0.1513,0,-0.1554,-0.1555,-0.1555,-0.1588,-0.1589,-0.1589,-0.159,-0.1651,-0.1652,-0.1654,0,0,0,0,0,0,0,0,0,0,0,0,0,-0.1452,-0.1453,-0.1512,-0.1513,-0.1514,-0.1554,-0.1555,-0.1555,-0.1588,-0.1589,-0.1589,-0.159,-0.1651,-0.1652,-0.1654,0,0,0,0,0,0,0,0,0,0,0,0,0,-0.1483,-0.1453,-0.1512,-0.1536,-0.1538,-0.1554,-0.1555,-0.1555,-0.1588,-0.1589,-0.1589,-0.159,-0.165,-0.1652,-0.1654,-0.1653,0,0,-0.166,-0.166,0,0,0,0,0,0,0,0,-0.1482,-0.1485,-0.1532,-0.1534,-0.1537,-0.1568,-0.1556,-0.1589,-0.1588,-0.1568,-0.159,-0.159,-0.1625,-0.1629,-0.1634,-0.1655,-0.1658,-0.166,-0.1661,-0.1662,-0.1662,0,0,0,0,0,0,0,-0.1479,-0.1484,-0.1528,-0.1532,-0.1536,-0.1541,-0.1546,-0.1562,-0.1592,-0.157,-0.1573,-0.1579,-0.1627,-0.1632,-0.1636,-0.1659,-0.166,-0.1661,-0.1662,-0.1663,-0.1745,-0.1746,0,0,0,0,0,0,-0.1476,-0.1482,-0.1527,-0.1529,-0.1512,-0.1542,-0.1548,-0.1556,-0.1592,-0.1598,-0.1578,-0.158,-0.1628,-0.1633,-0.1638,-0.1702,-0.1662,-0.1663,-0.1664,-0.1744,-0.1745,-0.1746,0,0,0,0,0,0,-0.1475,-0.148,-0.1525,-0.1507,-0.1513,-0.1543,-0.1552,-0.1557,-0.1591,-0.1598,-0.1604,-0.161,-0.1629,-0.1635,-0.1675,-0.1702,-0.1664,-0.1666,-0.1743,-0.1744,-0.1746,-0.1788,0,0,0,0,0,0,-0.1473,-0.1479,-0.1498,-0.1507,-0.1514,-0.1554,-0.1552,-0.1557,-0.1592,-0.1596,-0.1627,-0.1632,-0.163,-0.1672,-0.1677,-0.1704,-0.1667,-0.1741,-0.1743,-0.1745,-0.1786,-0.1791,-0.1796,0,0,0,0,0,-0.1471,-0.1491,-0.1499,-0.1505,-0.1535,-0.1556,-0.1561,-0.1582,-0.1594,-0.1614,-0.1634,-0.1632,-0.1688,-0.1675,-0.168,-0.1708,-0.174,-0.1743,-0.1745,-0.1783,-0.179,-0.1796,0,0,0,0,0,0,-0.1477,-0.1497,-0.1505,-0.1533,-0.1552,-0.1562,-0.1588,-0.1599,-0.163,-0.1643,-0.1647,-0.1654,-0.1696,-0.1697,-0.1682,-0.1737,-0.1714,-0.1717,-0.1741,-0.1747,-0.1752,-0.1745,-0.1669,0,0,0,0,0,-0.1486,-0.1508,-0.1524,-0.1549,-0.1562,-0.158,-0.1597,-0.1611,-0.1632,-0.1648,-0.1669,-0.1689,-0.1705,-0.1724,-0.1737,-0.1771,-0.1755,-0.1792,-0.1797,-0.1801,-0.1799,-0.1789,-0.1792,-0.1754,-0.1754,-0.1754,0,0,-0.1497,-0.151,-0.1525,-0.1552,-0.1571,-0.1595,-0.1593,-0.1628,-0.1653,-0.1649,-0.1701,-0.1711,-0.1717,-0.1752,-0.1771,-0.1761,-0.1807,-0.1804,-0.1808,-0.1803,-0.1792,-0.1795,-0.1798,-0.1756,-0.1756,-0.1755,0,0,-0.1517,-0.1542,-0.1564,-0.1585,-0.1617,-0.1627,-0.1644,-0.1672,-0.1694,-0.1736,-0.1736,-0.1759,-0.1799,-0.1798,-0.1803,-0.1846,-0.1833,-0.1862,-0.1887,-0.1878,-0.188,-0.1882,-0.1879,-0.188,-0.1867,-0.1867,-0.1867,0,-0.1532,-0.1558,-0.1576,-0.1601,-0.1624,-0.1645,-0.1674,-0.1696,-0.1736,-0.1753,-0.1763,-0.1806,-0.1815,-0.1836,-0.1852,-0.1857,-0.1853,-0.1863,-0.1883,-0.1885,-0.1886,-0.1882,-0.1882,-0.1869,-0.1869,-0.1869,-0.1868,0,-0.1556,-0.1591,-0.1609,-0.1647,-0.1674,-0.1705,-0.1732,-0.1768,-0.1798,-0.1813,-0.1855,-0.1861,-0.1883,-0.1893,-0.1889,-0.1908,-0.1903,-0.1888,-0.1864,-0.1892,-0.1886,-0.1886,-0.1872,-0.1872,-0.1871,-0.187,0,0,-0.1546,-0.1613,-0.1622,-0.1651,-0.1702,-0.1724,-0.1772,-0.1811,-0.1844,-0.1879,-0.1913,-0.1934,-0.1937,-0.1942,-0.1939,-0.1934,-0.1944,-0.1923,-0.1922,-0.1915,-0.1933,-0.183,-0.182,-0.1937,-0.1937,-0.1937,-0.1929,0,-0.156,-0.1615,-0.1646,-0.1706,-0.1735,-0.1776,-0.1818,-0.1858,-0.1893,-0.1933,-0.1938,-0.197,-0.1956,-0.1973,-0.1966,-0.1952,-0.1945,-0.1948,-0.1911,-0.191,-0.181,-0.1817,-0.1937,-0.1929,-0.1929,-0.1929,-0.1929,0,-0.156,-0.1602,-0.1662,-0.1736,-0.1755,-0.1798,-0.1866,-0.1905,-0.1956,-0.1985,-0.2008,-0.2016,-0.2025,-0.2005,-0.1986,-0.1993,-0.1967,-0.1948,-0.1947,-0.1831,-0.1806,-0.1893,-0.1929,-0.1929,-0.1929,-0.1929,-0.1929,0,-0.1523,-0.1606,-0.1658,-0.1684,-0.1772,-0.1814,-0.1862,-0.1924,-0.1958,-0.2016,-0.2043,-0.2054,-0.2065,-0.2038,-0.2007,-0.2002,-0.1977,-0.1961,-0.1841,-0.1835,-0.1912,-0.191,-0.1934,-0.1934,-0.1934,-0.1934,-0.1934,0,-0.1502,-0.1547,-0.1653,-0.1681,-0.1746,-0.1812,-0.1879,-0.1928,-0.1993,-0.2023,-0.2065,-0.2075,-0.2074,-0.206,-0.2022,-0.1931,-0.1987,-0.1838,-0.1818,-0.1933,-0.1933,-0.1913,-0.191,-0.1934,-0.1934,-0.1934,-0.1934,0,-0.1441,-0.1514,-0.1579,-0.1691,-0.173,-0.1776,-0.1884,-0.1918,-0.1997,-0.2036,-0.2055,-0.2097,-0.2071,-0.2056,-0.2014,-0.1937,-0.1871,-0.1825,-0.1962,-0.1951,-0.1734,-0.1734,-0.1681,-0.1677,-0.1673,-0.1671,-0.1668,0,-0.1408,-0.1439,-0.1571,-0.1611,-0.1667,-0.1751,-0.1798,-0.1902,-0.1929,-0.2026,-0.2022,-0.2047,-0.2051,-0.1904,-0.1911,-0.1827,-0.1797,-0.1761,-0.1726,-0.1718,-0.1705,-0.171,-0.1715,-0.1663,-0.1662,-0.1661,-0.1661,0,-0.1339,-0.1403,-0.1458,-0.154,-0.1607,-0.1668,-0.1743,-0.1754,-0.1856,-0.1956,-0.1926,-0.1898,-0.1869,-0.1817,-0.1769,-0.171,-0.1782,-0.1726,-0.1732,-0.1698,-0.1696,-0.1688,-0.1696,-0.1649,-0.1651,-0.1652,-0.1653,0,-0.1285,-0.1306,-0.1384,-0.1439,-0.1519,-0.1539,-0.1604,-0.163,-0.1673,-0.1782,-0.1773,-0.1798,-0.1855,-0.1757,-0.1716,-0.1649,-0.1608,-0.1542,-0.1557,-0.157,-0.1533,-0.1514,-0.1385,0,0,0,0,0,-0.1216,-0.1223,-0.1271,-0.1323,-0.1396,-0.1433,-0.1537,-0.1601,-0.1712,-0.1645,-0.1701,-0.1666,-0.1604,-0.1623,-0.152,-0.1652,-0.1611,-0.1527,-0.1544,-0.1586,-0.1599,-0.1564,0,0,0,0,0,0,-0.117,-0.1211,-0.1226,-0.1202,-0.121,-0.1269,-0.1325,-0.1409,-0.1379,-0.1499,-0.1466,-0.1561,-0.1515,-0.1621,-0.1481,-0.1484,-0.146,-0.1557,-0.1553,-0.1579,-0.1591,-0.1601,-0.157,0,0,0,0,0]},{"header":{"parameterUnit":"m.s-1","parameterCategory":2,"la1":30.2991,"la2":30.254,"lo1":-89.0895,"lo2":-89.0444,"dy":0.0017,"dx":0.0017,"nx":28,"ny":28,"refTime":"2025-03-03T09:00:00:Z","depth":"4","parameterNumber":3,"parameterNumberName":"V-component_of_CURRENTS"},"data":[0,0,0,0,0,0,0,0,0,0,0,0,0,0,0,0,0,0,0,0,0,0,0,0,0,0,0,0,0,0,0,0,0,0,0,0,0,0,0,0,0,0,0,0,0,0,0,0,0,0,0,0,0,0,0,0,0,0,-0.0287,-0.0286,0,-0.0235,-0.0235,-0.0234,-0.02,-0.0199,-0.0199,-0.0199,-0.0121,-0.0119,-0.0117,0,0,0,0,0,0,0,0,0,0,0,0,0,-0.03,-0.03,-0.0287,-0.0286,-0.0286,-0.0235,-0.0235,-0.0234,-0.02,-0.0199,-0.0199,-0.0199,-0.0122,-0.012,-0.0117,0,0,0,0,0,0,0,0,0,0,0,0,0,-0.0275,-0.0301,-0.0287,-0.0263,-0.0261,-0.0235,-0.0234,-0.0233,-0.02,-0.0199,-0.0199,-0.0199,-0.0123,-0.012,-0.0117,-0.0103,0,0,-0.0108,-0.0107,0,0,0,0,0,0,0,0,-0.0277,-0.0275,-0.0267,-0.0265,-0.0262,-0.0224,-0.0211,-0.0189,-0.02,-0.0222,-0.0199,-0.0199,-0.0154,-0.0149,-0.0138,-0.01,-0.0096,-0.0108,-0.0106,-0.0105,-0.0104,0,0,0,0,0,0,0,-0.0279,-0.0277,-0.0265,-0.0267,-0.0264,-0.0236,-0.0233,-0.0206,-0.0189,-0.022,-0.0218,-0.0213,-0.0152,-0.0141,-0.0136,-0.0095,-0.0108,-0.0105,-0.0103,-0.0102,-0.0043,-0.0043,0,0,0,0,0,0,-0.029,-0.0279,-0.0267,-0.0264,-0.027,-0.0237,-0.0233,-0.0236,-0.0189,-0.0183,-0.0214,-0.0212,-0.0146,-0.014,-0.0133,-0.0114,-0.0105,-0.0102,-0.01,-0.0043,-0.0043,-0.0043,0,0,0,0,0,0,-0.0291,-0.029,-0.0269,-0.027,-0.0266,-0.0237,-0.0241,-0.0235,-0.0227,-0.0185,-0.0177,-0.0211,-0.0146,-0.0137,-0.0112,-0.011,-0.0101,-0.0098,-0.0042,-0.0043,-0.0043,-0.0075,0,0,0,0,0,0,-0.0292,-0.0291,-0.0298,-0.0271,-0.0266,-0.0259,-0.0241,-0.0234,-0.0225,-0.0222,-0.0181,-0.0173,-0.0145,-0.0116,-0.0109,-0.0106,-0.0096,-0.0042,-0.0043,-0.0043,-0.0074,-0.0076,-0.0078,0,0,0,0,0,-0.0292,-0.0303,-0.0299,-0.0298,-0.0278,-0.026,-0.0254,-0.0232,-0.0225,-0.0223,-0.0195,-0.0174,-0.0113,-0.0114,-0.0105,-0.0102,-0.0042,-0.0042,-0.0043,-0.0073,-0.0076,-0.0078,0,0,0,0,0,0,-0.031,-0.0299,-0.0295,-0.0302,-0.0285,-0.0254,-0.0252,-0.0237,-0.0214,-0.0213,-0.0174,-0.0164,-0.0142,-0.012,-0.0122,-0.0087,-0.0075,-0.0074,-0.0101,-0.0104,-0.0106,-0.0107,-0.0093,0,0,0,0,0,-0.032,-0.0327,-0.0307,-0.0313,-0.0308,-0.0282,-0.0273,-0.0259,-0.0234,-0.0224,-0.0194,-0.0164,-0.0137,-0.0119,-0.0094,-0.0072,-0.0041,-0.0065,-0.0068,-0.007,-0.0066,-0.0022,-0.0019,-0.0044,-0.0044,-0.0044,0,0,-0.0328,-0.0324,-0.0327,-0.0318,-0.0304,-0.0299,-0.0276,-0.0268,-0.0258,-0.0219,-0.02,-0.0173,-0.0134,-0.0111,-0.0099,-0.0091,-0.0047,-0.0071,-0.0073,-0.0067,-0.0022,-0.0019,-0.0017,-0.0044,-0.0044,-0.0044,0,0,-0.0347,-0.0346,-0.0357,-0.0347,-0.0334,-0.0316,-0.0317,-0.029,-0.0274,-0.0254,-0.0223,-0.0195,-0.0157,-0.0123,-0.0102,-0.0102,-0.0064,-0.0099,-0.0106,-0.0064,-0.0061,-0.0058,-0.0017,-0.001,-0.0097,-0.0097,-0.0097,0,-0.0358,-0.037,-0.0356,-0.036,-0.0354,-0.0327,-0.033,-0.0309,-0.0276,-0.0259,-0.0255,-0.0188,-0.016,-0.0116,-0.0118,-0.0106,-0.0077,-0.0098,-0.0066,-0.0063,-0.0059,-0.0017,-0.0009,-0.0099,-0.0098,-0.0098,-0.0098,0,-0.0381,-0.0389,-0.0394,-0.0393,-0.0382,-0.0381,-0.0353,-0.0339,-0.0319,-0.0292,-0.0252,-0.021,-0.0167,-0.0157,-0.0137,-0.0098,-0.0084,-0.0077,-0.0058,-0.0058,-0.0014,-0.0006,-0.0101,-0.01,-0.01,-0.0099,0,0,-0.0406,-0.0411,-0.0413,-0.0418,-0.04,-0.0395,-0.0378,-0.0349,-0.0333,-0.0297,-0.0267,-0.0219,-0.0192,-0.0167,-0.0134,-0.0097,-0.0053,-0.0081,-0.0078,-0.0039,0.0043,0.0037,0.0047,-0.004,-0.0039,-0.0038,0.0064,0,-0.0428,-0.0451,-0.044,-0.0451,-0.0458,-0.0427,-0.0413,-0.0382,-0.0347,-0.031,-0.0254,-0.022,-0.0196,-0.0179,-0.0135,-0.0072,-0.0031,-0.008,0.0038,0.0041,0.0036,0.0056,-0.0033,0.0071,0.0073,0.0074,0.0075,0,-0.0451,-0.0465,-0.0488,-0.0484,-0.0483,-0.0484,-0.0453,-0.0435,-0.0373,-0.0343,-0.0288,-0.0244,-0.0175,-0.0167,-0.0045,-0.0078,-0.0022,0.0026,0.0031,0.0044,0.0051,0.0072,0.0092,0.0091,0.0089,0.0088,0.0087,0,-0.0481,-0.0494,-0.0517,-0.0517,-0.0509,-0.051,-0.05,-0.0451,-0.0434,-0.0365,-0.034,-0.0249,-0.0207,-0.0119,-0.0018,-0.0031,0.0114,0.011,0.0162,0.0163,0.0152,0.0148,0.0192,0.0191,0.0191,0.0191,0.0191,0,-0.0504,-0.0522,-0.0539,-0.0553,-0.0576,-0.0551,-0.0555,-0.0524,-0.0477,-0.0454,-0.0366,-0.0323,-0.0196,-0.0098,-0.001,0.011,0.0125,0.0171,0.0192,0.0135,0.0128,0.0158,0.0153,0.0195,0.0194,0.0193,0.0193,0,-0.0531,-0.0542,-0.0574,-0.0587,-0.0596,-0.0614,-0.0612,-0.0607,-0.0552,-0.0517,-0.05,-0.0373,-0.0241,-0.0105,0.0049,0.0114,0.0229,0.0265,0.0204,0.0218,0.0248,0.024,0.0335,0.0336,0.0336,0.0337,0.0337,0,-0.0545,-0.0568,-0.0614,-0.0645,-0.0659,-0.0682,-0.0698,-0.0658,-0.0644,-0.0547,-0.053,-0.0395,-0.0301,-0.007,0.0063,0.025,0.0262,0.0321,0.0277,0.0254,0.0265,0.0255,0.0247,0.0338,0.0338,0.0339,0.0339,0,-0.0572,-0.0597,-0.0627,-0.0698,-0.0735,-0.0763,-0.0775,-0.0769,-0.0709,-0.0662,-0.0545,-0.041,-0.0254,-0.0076,0.0076,0.0201,0.0284,0.0328,0.0327,0.0285,0.0259,0.0267,0.0257,0.0341,0.034,0.034,0.034,0,-0.0593,-0.0629,-0.0682,-0.0735,-0.0792,-0.0822,-0.0823,-0.079,-0.0761,-0.0645,-0.061,-0.0422,-0.031,-0.01,0.0038,0.0169,0.0187,0.0207,0.0213,0.0212,0.014,0.0085,0.0142,0,0,0,0,0,-0.0606,-0.0651,-0.0713,-0.0772,-0.0829,-0.0856,-0.0862,-0.0846,-0.079,-0.0718,-0.0658,-0.0508,-0.0272,-0.0158,-0.003,0.0028,0.0194,0.018,0.0216,0.0352,0.035,0.0284,0,0,0,0,0,0,-0.0617,-0.0682,-0.0714,-0.0788,-0.0835,-0.0885,-0.0892,-0.0856,-0.0798,-0.0723,-0.0593,-0.0499,-0.0268,-0.0351,-0.0035,0.0008,0.0043,0.0301,0.0303,0.0353,0.0351,0.0349,0.0282,0,0,0,0,0]}]]